Location: Unspecified
(0.0000°N, 0.0000°E)
Time: 19:38:14
(UTC+00:00)

deb Briz - Pass Details

Date: 18 February 2026
Orbit: 1858 x 2172 km, 64.9° (Epoch: 11 March)

Event Time Altitude Azimuth Distance (km) Brightness Sun altitude
Rises 05:39:07 0° 223° (SW) 5,525 ? -8.5°
Reaches altitude 10° 05:42:55 10° 232° (SW) 4,562 ? -7.6°
Maximum altitude 05:53:12 34° 292° (WNW) 3,116 ? -5.1°
Drops below altitude 10° 06:03:50 10° 352° (N) 4,682 ? -2.5°
Sets 06:07:55 0° 2° (N) 5,686 ? -1.5°
